Regional Weather Roundup
Issued by NWS Little Rock, AR

Home | Current Version | Previous Version | Text Only | Print | Product List | Glossary Off
Versions: 1 2 3 4 5 6 7 8 9 10 11 12 13 14 15 16 17 18 19 20 21 22 23 24 25 26 27 28 29 30 31 32 33 34 35 36 37 38 39 40 41 42

000
ASUS44 KLZK 012005
RWRLZK

WEATHER ROUNDUP FOR ARKANSAS
NATIONAL WEATHER SERVICE LITTLE ROCK AR
300 PM CDT WED OCT 01 2014

NOTE: "FAIR" INDICATES FEW OR NO CLOUDS BELOW 12,000 FEET WITH NO
SIGNIFICANT WEATHER AND/OR OBSTRUCTIONS TO VISIBILITY.

ARZ001-003-010-029-012100-
NORTHWEST ARKANSAS

CITY           SKY/WX    TMP DP  RH WIND       PRES   REMARKS
FAYETTEVILLE   SUNNY     82  68  62 S17       29.82F HX  85
FORT SMITH     PTSUNNY   87  67  51 S9        29.78F HX  90
HARRISON       MOSUNNY   84  67  56 S13       29.84F HX  86
BENTONVILLE    PTSUNNY   82  66  57 S14G20    29.82F HX  85
ROGERS         PTSUNNY   84  66  54 S18       29.82F HX  86
SILOAM SPGS    PTSUNNY   84  66  54 S17       29.81F HX  86
HIGHFILL       PTSUNNY   83  66  56 S17       29.80F HX  85
SPRINGDALE     PTSUNNY   84  68  58 S14G25    29.84F HX  87
$$

ARZ004-005-016-012100-
NORTH CENTRAL ARKANSAS

CITY           SKY/WX    TMP DP  RH WIND       PRES   REMARKS
BATESVILLE     MOSUNNY   88  64  45 S9G16     29.83F HX  89
FLIPPIN        MOSUNNY   88  64  45 S8G16     29.82F HX  89
MTN HOME       MOSUNNY   87  66  49 S13G20    29.82F HX  89
$$

ARZ040-041-012100-
WEST CENTRAL ARKANSAS

CITY           SKY/WX    TMP DP  RH WIND       PRES   REMARKS
MENA           PTSUNNY   86  72  62 S6        29.84S HX  92
MOUNT IDA      MOSUNNY   86  70  58 CALM      29.81F HX  90
$$

ARZ009-017-025-026-028-012100-
NORTHEAST ARKANSAS

CITY           SKY/WX    TMP DP  RH WIND       PRES   REMARKS
CORNING        LGT RAIN  90  66  45 SE14G24   29.84F HX  92
JONESBORO      MOSUNNY   89  68  49 S15G24    29.85F HX  93
NEWPORT        MOSUNNY   87  69  54 S16       29.85F HX  91
WALNUT RIDGE   MOSUNNY   88  66  48 S14       29.82F HX  90
BLYTHEVILLE    CLOUDY    84  65  52 S6        29.88F HX  86
$$

ARZ022-023-033-042-044-012100-
CENTRAL ARKANSAS

CITY           SKY/WX    TMP DP  RH WIND       PRES   REMARKS
LITTLE ROCK    PTSUNNY   86  68  54 S10       29.84F HX  89
N LITTLE ROCK  PTSUNNY   87  72  60 S9G18     29.84F HX  93
JACKSONVILLE   MOSUNNY   88  70  55 S12       29.84F HX  92
SEARCY         MOSUNNY   85  71  63 VRB5      29.85F HX  90
HOT SPRINGS    MOSUNNY   85  70  60 VRB6      29.83F HX  89
RUSSELLVILLE   MOSUNNY   88  69  53 VRB5G17   29.81F HX  92
CLINTON        FAIR      88  72  58 S9        29.83F HX  94
$$

ARZ036-012100-
EAST ARKANSAS

CITY           SKY/WX    TMP DP  RH WIND       PRES   REMARKS
WEST MEMPHIS   CLOUDY    84  67  56 S12       29.86F HX  86
$$

ARZ050-053-066-070-073-012100-
SOUTHWEST ARKANSAS

CITY           SKY/WX    TMP DP  RH WIND       PRES   REMARKS
ARKADELPHIA    FAIR      89  73  59 S10       29.82F HX  96
CAMDEN         SUNNY     90  68  48 S8        29.82F HX  93
TEXARKANA      MOSUNNY   89  70  53 VRB7      29.81F HX  94
EL DORADO      MOSUNNY   89  70  53 S14       29.84F HX  94
DE QUEEN       SUNNY     86  71  60 VRB5      29.79F HX  91
$$

ARZ056-057-069-012100-
SOUTHEAST ARKANSAS

CITY           SKY/WX    TMP DP  RH WIND       PRES   REMARKS
PINE BLUFF     MOSUNNY   89  68  49 S12       29.83F HX  93
STUTTGART      CLOUDY   N/A N/A N/A SE6       29.87S
MONTICELLO     PTSUNNY   89  67  47 S10G18    29.84F HX  92

$$




USA.gov is the U.S. government's official web portal to all federal, state and local government web resources and services.